FW9021 Weather Reports


time (UTC)temp
F
wind
direction
speed
knots
gust
knots
rain 1hr
in
rain 24hr
in
rain mn
in
humidity
%
barometer
mb
20260507070539 61 0 0.0 1.7 0.06 1.42 0.32 85 1010.7
20260507070049 61 66 0.9 1.7 0.06 1.42 0.32 85 1010.8
20260507065538 61 0 0.0 5.2 0.07 1.42 0.32 85 1010.8
20260507065038 61 244 1.7 5.2 0.08 1.42 0.32 85 1011.2
20260507064543 61 295 0.9 5.2 0.09 1.42 0.32 85 1011.1
20260507064038 61 0 1.7 5.2 0.09 1.42 0.32 85 1010.9
20260507063538 61 272 0.0 7.8 0.08 1.41 0.31 85 1011.5
20260507063047 61 202 1.7 10.4 0.06 1.39 0.29 85 1011.6
20260507062538 62 252 0.9 10.4 0.06 1.38 0.28 85 1012.2
20260507062038 62 281 7.8 10.4 0.06 1.36 0.26 85 1012.1
20260507061555 62 263 3.5 7.0 0.07 1.36 0.26 84 1011.1
20260507061038 61 267 1.7 3.5 0.08 1.36 0.26 85 1010.2
20260507060538 61 115 1.7 3.5 0.10 1.36 0.26 85 1010.7
20260507060046 62 335 0.9 3.5 0.10 1.36 0.26 85 1011.4
20260507055542 62 0 0.9 4.3 0.09 1.35 0.25 85 1011.6
20260507055039 62 34 1.7 7.0 0.07 1.33 0.23 85 1011.5
20260507054542 62 247 3.5 7.0 0.07 1.33 0.23 85 1012.4
20260507054038 62 290 1.7 4.3 0.08 1.33 0.23 84 1011.8
20260507053542 62 0 0.0 2.6 0.08 1.33 0.23 85 1011.5
20260507053112 62 84 0.0 7.0 0.09 1.33 0.23 85 1011.9
20260507052538 62 71 0.9 7.0 0.15 1.32 0.22 85 1012.0
20260507052038 62 265 1.7 5.2 0.18 1.30 0.20 85 1012.4
20260507051548 61 238 1.7 4.3 0.19 1.29 0.19 85 1012.2
20260507051038 62 144 0.9 4.3 0.18 1.28 0.18 85 1011.9
20260507050538 61 29 0.9 4.3 0.16 1.26 0.16 85 1012.3
20260507050046 62 103 0.9 4.3 0.16 1.26 0.16 85 1012.2
20260507045544 62 34 2.6 4.3 0.17 1.26 0.16 85 1012.2
20260507045058 61 163 0.0 1.7 0.17 1.26 0.16 85 1012.1
20260507044549 61 0 0.9 2.6 0.18 1.26 0.16 85 1012.6
20260507044038 62 53 0.9 2.6 0.20 1.25 0.15 85 1012.5
20260507043539 62 0 0.9 5.2 0.23 1.25 0.15 85 1012.9
20260507043050 62 293 0.9 5.2 0.22 1.24 0.14 85 1012.8
20260507042539 62 101 0.9 4.3 0.14 1.16 0.06 85 1012.7
20260507042038 62 0 0.9 4.3 0.10 1.12 0.02 85 1012.9
20260507041547 62 45 2.6 4.3 0.08 1.10 0.00 85 1013.2
20260507041041 62 59 0.9 4.3 0.08 1.10 0.00 85 1013.0
20260507040539 62 21 2.6 4.3 0.08 1.10 0.00 85 1013.0
20260507040052 62 51 0.9 4.3 0.08 1.10 0.00 85 1012.8
20260507035538 62 30 3.5 4.3 0.07 1.09 1.09 85 1013.4
20260507035038 62 9 0.0 4.3 0.07 1.09 1.09 85 1013.4
20260507034549 62 349 1.7 7.8 0.06 1.08 1.08 85 1013.2
20260507034038 62 236 2.6 7.8 0.02 1.04 1.04 85 1013.0
20260507033538 62 326 3.5 5.2 0.00 1.02 1.02 85 1013.3
20260507033050 62 10 1.7 3.5 0.00 1.02 1.02 85 1012.3
20260507032539 62 0 0.0 1.7 0.00 1.02 1.02 85 1012.3
20260507032038 62 0 0.0 1.7 0.00 1.02 1.02 85 1012.1
20260507031549 62 53 0.0 2.6 0.00 1.02 1.02 85 1011.8
20260507031043 62 53 0.9 2.6 0.00 1.02 1.02 85 1012.0
20260507030540 62 35 0.0 1.7 0.00 1.02 1.02 85 1012.2
20260507030049 62 0 0.0 2.6 0.00 1.02 1.02 85 1012.4
20260507025540 62 0 0.0 2.6 0.00 1.02 1.02 85 1012.4
20260507025042 62 321 0.9 1.7 0.00 1.02 1.02 85 1012.4
20260507024559 62 0 0.9 1.7 0.00 1.02 1.02 85 1012.2
20260507024040 62 55 0.0 1.7 0.00 1.02 1.02 85 1012.5
20260507023540 62 55 0.0 1.7 0.00 1.02 1.02 85 1012.5
20260507023047 62 0 0.0 0.9 0.00 1.02 1.02 85 1012.5
20260507022539 62 0 0.0 1.7 0.00 1.02 1.02 85 1012.5
20260507022040 62 0 0.0 1.7 0.00 1.02 1.02 85 1012.6
20260507021549 62 55 0.0 1.7 0.00 1.02 1.02 85 1012.6
20260507021041 62 0 0.0 1.7 0.00 1.02 1.02 85 1012.5
20260507020541 62 0 0.9 1.7 0.00 1.02 1.02 85 1012.4
20260507020047 62 0 0.0 0.9 0.01 1.02 1.02 85 1012.5
20260507015540 62 0 0.0 0.9 0.01 1.02 1.02 85 1012.5
20260507015041 62 0 0.0 0.9 0.01 1.02 1.02 85 1012.5
20260507014601 62 0 0.0 0.9 0.01 1.02 1.02 85 1012.5
20260507014041 62 89 0.0 2.6 0.02 1.02 1.02 85 1012.5
20260507013540 62 0 0.9 2.6 0.02 1.02 1.02 85 1012.4
20260507013048 62 28 0.9 3.5 0.04 1.02 1.02 85 1012.7
20260507012540 62 5 1.7 3.5 0.04 1.02 1.02 85 1012.7
20260507012040 62 0 0.0 3.5 0.04 1.02 1.02 85 1012.7
20260507011551 62 88 1.7 3.5 0.04 1.02 1.02 85 1012.5
20260507011042 62 27 0.9 3.5 0.04 1.02 1.02 85 1012.9
20260507010540 62 300 0.0 1.7 0.04 1.02 1.02 85 1012.8
20260507005540 62 136 0.9 2.6 0.03 1.01 1.01 85 1012.9
20260507005039 62 38 0.0 3.5 0.03 1.01 1.01 85 1012.9
20260507004611 62 102 0.9 3.5 0.03 1.01 1.01 85 1013.2
20260507004041 62 321 1.7 3.5 0.02 1.00 1.00 85 1014.1
20260507003541 62 70 0.9 3.5 0.02 0.99 0.99 85 1013.8
20260507003054 62 0 0.9 3.5 0.02 0.98 0.98 85 1013.6
20260507002540 62 98 1.7 3.5 0.10 0.98 0.98 85 1012.7
20260507002040 62 79 0.0 2.6 0.14 0.98 0.98 85 1012.9
20260507001550 62 79 0.9 2.6 0.15 0.98 0.98 85 1013.0
20260507001040 62 0 0.0 2.6 0.15 0.98 0.98 85 1013.2
20260507000538 63 79 0.9 2.6 0.16 0.98 0.98 85 1013.1
20260507000054 63 0 0.0 2.6 0.16 0.98 0.98 85 1013.6
20260506235542 63 0 0.0 2.6 0.16 0.98 0.98 85 1013.5
20260506235040 63 44 0.9 3.5 0.16 0.98 0.98 85 1013.2
20260506234548 62 28 1.7 3.5 0.17 0.98 0.98 85 1013.0
20260506234042 62 30 0.9 7.8 0.17 0.98 0.98 85 1013.2
20260506233542 63 212 1.7 7.8 0.16 0.97 0.97 85 1013.4
20260506233055 63 259 4.3 13.0 0.15 0.96 0.96 85 1013.2
20260506232538 63 355 8.7 13.0 0.08 0.88 0.88 85 1012.9
20260506232039 63 292 4.3 7.8 0.03 0.83 0.83 85 1012.9
20260506231550 63 17 2.6 6.1 0.05 0.83 0.83 85 1011.8
20260506231039 63 0 0.0 6.1 0.05 0.83 0.83 86 1011.8
20260506230538 63 360 1.7 6.1 0.04 0.82 0.82 85 1011.8
20260506230056 63 45 1.7 5.2 0.06 0.82 0.82 86 1011.6
20260506225543 63 105 2.6 5.2 0.08 0.82 0.82 85 1011.2
20260506225039 63 342 1.7 3.5 0.10 0.82 0.82 85 1012.8
20260506224551 63 53 1.7 3.5 0.18 0.81 0.81 86 1012.3
20260506224039 63 30 0.0 1.7 0.18 0.81 0.81 85 1012.6
20260506223539 63 191 0.0 1.7 0.18 0.81 0.81 86 1012.8
20260506223048 63 0 0.0 1.7 0.19 0.81 0.81 86 1012.6
20260506222539 63 0 0.0 1.7 0.18 0.80 0.80 86 1012.3
20260506222039 63 103 0.9 3.5 0.18 0.80 0.80 86 1012.3
20260506221548 63 0 0.0 3.5 0.16 0.78 0.78 86 1012.4
20260506221038 63 66 0.9 2.6 0.16 0.78 0.78 86 1012.4
20260506220539 63 0 0.0 3.5 0.16 0.78 0.78 86 1012.4
20260506220050 63 53 0.9 3.5 0.14 0.76 0.76 86 1012.4
20260506215538 63 19 0.9 2.6 0.13 0.74 0.74 86 1012.5
20260506215041 63 132 0.9 2.6 0.12 0.70 0.70 86 1012.6
20260506214602 63 47 0.9 2.6 0.07 0.63 0.63 86 1012.8
20260506214039 63 61 0.0 5.2 0.07 0.63 0.63 86 1012.4
20260506213541 63 0 0.9 5.2 0.08 0.63 0.63 86 1012.5
20260506213048 63 313 1.7 5.2 0.08 0.62 0.62 86 1012.4
20260506212538 63 0 0.9 5.2 0.10 0.62 0.62 86 1012.4
20260506212038 63 258 2.6 5.2 0.18 0.62 0.62 86 1012.5
20260506211548 63 0 0.0 2.6 0.31 0.62 0.62 86 1012.4
20260506211038 63 246 1.7 2.6 0.32 0.62 0.62 86 1012.5
20260506210537 63 192 0.9 3.5 0.32 0.62 0.62 86 1012.5
20260506210055 63 0 0.9 3.5 0.32 0.62 0.62 86 1012.4
20260506205538 63 113 1.7 3.5 0.30 0.60 0.60 86 1012.3
20260506205038 63 0 0.0 5.2 0.28 0.58 0.58 86 1012.5
20260506204552 63 342 1.7 6.1 0.26 0.56 0.56 86 1012.8
20260506204038 63 68 1.7 7.0 0.26 0.56 0.56 86 1012.4
20260506203542 63 20 1.7 10.4 0.25 0.55 0.55 86 1012.4
20260506203052 63 293 2.6 11.3 0.24 0.54 0.54 87 1012.7
20260506202539 64 336 5.2 11.3 0.22 0.52 0.52 87 1012.9
20260506202039 65 46 4.3 10.4 0.13 0.43 0.43 86 1013.4
20260506201544 66 352 6.1 8.7 0.01 0.31 0.31 86 1013.1
20260506201038 66 26 5.2 8.7 0.00 0.30 0.30 86 1012.3
20260506200539 66 63 4.3 7.8 0.00 0.30 0.30 86 1012.4
20260506200101 66 30 3.5 5.2 0.00 0.30 0.30 86 1012.4
20260506195538 66 55 1.7 4.3 0.00 0.30 0.30 86 1012.5
20260506195040 67 30 0.9 4.3 0.00 0.30 0.30 86 1012.7
20260506194556 67 63 1.7 4.3 0.00 0.30 0.30 86 1012.7
20260506194041 67 38 2.6 4.3 0.00 0.30 0.30 86 1012.8
20260506193538 67 0 0.9 2.6 0.00 0.30 0.30 86 1012.7
20260506193052 67 69 0.0 2.6 0.00 0.30 0.30 86 1012.7
20260506192538 67 81 0.9 2.6 0.00 0.30 0.30 86 1012.8
20260506192044 67 58 0.9 2.6 0.00 0.30 0.30 86 1012.8
20260506191559 67 34 0.0 3.5 0.00 0.30 0.30 86 1012.8
20260506191039 67 34 1.7 3.5 0.00 0.30 0.30 86 1012.9
20260506190538 67 340 0.0 3.5 0.00 0.30 0.30 86 1013.1
20260506190043 67 0 1.7 3.5 0.00 0.30 0.30 86 1013.1
20260506185538 67 43 1.7 3.5 0.00 0.30 0.30 86 1013.5
20260506185038 67 360 1.7 7.0 0.00 0.30 0.30 86 1013.4
20260506184543 67 0 0.9 7.8 0.00 0.30 0.30 86 1013.6
20260506184038 67 265 1.7 7.8 0.00 0.30 0.30 86 1013.4
20260506183539 67 270 3.5 9.6 0.00 0.30 0.30 86 1013.5
20260506183051 67 190 3.5 9.6 0.00 0.30 0.30 86 1013.5
20260506182538 67 139 2.6 9.6 0.00 0.30 0.30 86 1013.6
20260506182038 67 124 3.5 9.6 0.00 0.30 0.30 86 1014.0
20260506181556 67 236 4.3 11.3 0.00 0.30 0.30 86 1014.1
20260506181038 67 254 3.5 11.3 0.00 0.30 0.30 86 1014.2
20260506180539 66 255 4.3 11.3 0.00 0.30 0.30 86 1014.0
20260506180105 66 219 7.0 11.3 0.00 0.30 0.30 86 1013.9
20260506175538 66 243 7.0 10.4 0.00 0.30 0.30 86 1014.0
20260506175038 66 290 7.0 13.0 0.00 0.30 0.30 86 1014.0
20260506174546 66 267 3.5 15.6 0.00 0.30 0.30 86 1013.9
20260506174038 66 217 6.1 15.6 0.00 0.30 0.30 86 1014.0
20260506173538 66 277 10.4 15.6 0.00 0.30 0.30 86 1014.0
20260506173054 66 251 8.7 12.2 0.00 0.30 0.30 86 1014.0
20260506172538 66 252 7.0 10.4 0.00 0.30 0.30 86 1014.0
20260506172038 65 346 0.9 8.7 0.00 0.30 0.30 86 1013.9
20260506171547 65 11 3.5 8.7 0.00 0.30 0.30 86 1013.8
20260506171041 65 326 3.5 9.6 0.00 0.30 0.30 86 1013.7
20260506170539 65 259 3.5 9.6 0.00 0.30 0.30 86 1013.7
20260506170050 65 205 0.9 9.6 0.00 0.30 0.30 86 1013.7
20260506165538 64 0 1.7 10.4 0.00 0.30 0.30 86 1013.6
20260506165039 64 229 2.6 10.4 0.00 0.30 0.30 86 1013.7
20260506164544 64 231 2.6 7.0 0.00 0.30 0.30 86 1013.6
20260506164040 65 109 3.5 10.4 0.00 0.30 0.30 87 1013.7
20260506163538 65 225 2.6 10.4 0.00 0.30 0.30 86 1013.8
20260506163053 65 137 2.6 11.3 0.01 0.30 0.30 86 1013.8
20260506162538 65 215 5.2 12.2 0.01 0.30 0.30 86 1014.3
20260506162041 65 242 4.3 12.2 0.01 0.30 0.30 86 1014.6
20260506161555 65 239 2.6 7.0 0.02 0.30 0.30 87 1014.5
20260506161039 64 211 2.6 4.3 0.06 0.30 0.30 87 1014.5
20260506160539 64 254 0.9 3.5 0.07 0.30 0.30 86 1014.2
20260506160051 64 0 0.9 3.5 0.07 0.30 0.30 87 1013.7
20260506155541 64 91 0.0 7.0 0.07 0.30 0.30 87 1013.8
20260506155038 64 235 1.7 7.8 0.08 0.30 0.30 87 1013.9
20260506154549 63 259 4.3 10.4 0.09 0.30 0.30 87 1014.2
20260506154039 63 258 3.5 10.4 0.09 0.30 0.30 87 1014.3
20260506153539 63 231 5.2 9.6 0.16 0.30 0.30 86 1014.9
20260506153049 63 119 2.6 11.3 0.17 0.29 0.29 87 1014.3
20260506152538 63 232 5.2 12.2 0.29 0.29 0.29 87 1015.0
20260506152041 63 255 7.0 14.8 0.29 0.29 0.29 86 1015.2
20260506151546 63 244 7.0 14.8 0.28 0.28 0.28 87 1015.2
20260506151038 63 243 10.4 14.8 0.24 0.24 0.24 87 1015.3
20260506150538 63 255 6.1 12.2 0.23 0.23 0.23 87 1014.8
20260506150046 63 235 6.1 14.8 0.23 0.23 0.23 87 1014.8
20260506145539 63 248 7.0 14.8 0.23 0.23 0.23 87 1014.6
20260506145039 63 246 8.7 14.8 0.22 0.22 0.22 87 1014.8
20260506144602 63 244 8.7 15.6 0.21 0.21 0.21 87 1014.6
20260506144038 63 256 5.2 15.6 0.21 0.21 0.21 87 1014.3
20260506143539 63 226 8.7 15.6 0.14 0.14 0.14 86 1014.6
20260506143050 64 225 7.0 13.9 0.12 0.12 0.12 86 1014.3
20260506142539 64 252 7.8 13.0 0.00 0.00 0.00 85 1014.3
20260506142038 64 253 5.2 13.0 0.00 0.00 0.00 85 1014.3
20260506141544 64 304 6.1 13.9 0.00 0.00 0.00 84 1014.1
20260506141039 65 254 8.7 13.9 0.00 0.00 0.00 84 1014.0
20260506140538 65 257 8.7 13.9 0.00 0.00 0.00 84 1013.8
20260506140043 65 239 7.8 13.0 0.00 0.00 0.00 84 1013.7
20260506135538 65 235 8.7 13.0 0.00 0.00 0.00 83 1013.6
20260506135039 65 237 7.8 13.0 0.00 0.00 0.00 83 1013.4
20260506134554 65 221 7.0 13.9 0.00 0.00 0.00 82 1013.2
20260506134038 65 247 8.7 13.9 0.00 0.00 0.00 82 1013.5
20260506133539 65 254 6.1 13.0 0.00 0.00 0.00 81 1013.7
20260506133053 65 251 7.8 13.0 0.00 0.00 0.00 81 1013.7
20260506132539 65 235 5.2 13.0 0.00 0.00 0.00 81 1013.4
20260506132039 65 267 3.5 9.6 0.00 0.00 0.00 81 1013.4
20260506131552 65 254 3.5 7.0 0.00 0.00 0.00 80 1013.5
20260506131038 65 322 0.9 3.5 0.00 0.00 0.00 80 1013.4
20260506130539 65 0 0.9 5.2 0.00 0.00 0.00 79 1013.1
20260506130052 65 0 1.7 5.2 0.00 0.00 0.00 80 1013.0
20260506125538 65 328 0.9 3.5 0.00 0.00 0.00 79 1013.1
20260506125041 65 280 0.9 5.2 0.00 0.00 0.00 79 1013.0
20260506124551 65 0 0.9 11.3 0.00 0.00 0.00 79 1012.9
20260506124041 65 309 1.7 11.3 0.00 0.00 0.00 79 1013.1
20260506123538 65 268 5.2 11.3 0.00 0.00 0.00 79 1013.0
20260506123058 65 267 3.5 7.8 0.00 0.00 0.00 79 1012.9
20260506122538 65 0 2.6 7.8 0.00 0.00 0.00 79 1013.0
20260506122039 65 273 2.6 11.3 0.00 0.00 0.00 79 1012.7
20260506121554 65 275 5.2 13.9 0.00 0.00 0.00 79 1012.5
20260506121039 65 192 3.5 13.9 0.00 0.00 0.00 78 1012.5
20260506120538 66 168 5.2 11.3 0.00 0.00 0.00 77 1013.0
20260506120050 66 278 2.6 10.4 0.00 0.00 0.00 77 1013.0
20260506115541 66 247 6.1 10.4 0.00 0.00 0.00 77 1013.2
20260506115038 66 258 3.5 11.3 0.00 0.00 0.00 76 1013.0
20260506114553 66 246 5.2 11.3 0.00 0.00 0.00 76 1013.0
20260506114038 66 252 4.3 9.6 0.00 0.00 0.00 76 1012.9
20260506113538 66 267 5.2 9.6 0.00 0.00 0.00 76 1012.9
20260506113044 66 178 2.6 8.7 0.00 0.00 0.00 75 1012.8
20260506112542 66 236 1.7 11.3 0.00 0.00 0.00 75 1012.7
20260506112043 66 271 2.6 11.3 0.00 0.00 0.00 75 1012.8
20260506111558 66 247 5.2 11.3 0.00 0.00 0.00 75 1012.8
20260506111038 66 246 4.3 9.6 0.00 0.00 0.00 75 1012.2
20260506110538 66 326 1.7 7.8 0.00 0.00 0.00 75 1012.1
20260506110047 66 266 2.6 8.7 0.00 0.00 0.00 74 1012.0
20260506105538 66 221 4.3 13.0 0.00 0.00 0.00 74 1012.1
20260506105041 66 265 1.7 13.0 0.00 0.00 0.00 73 1012.1
20260506104555 67 211 2.6 13.0 0.00 0.00 0.00 74 1012.3
20260506104038 67 223 4.3 13.0 0.00 0.00 0.00 74 1012.3
20260506103538 67 255 7.0 13.0 0.00 0.00 0.00 74 1012.6
20260506103049 67 241 6.1 12.2 0.00 0.00 0.00 73 1012.5
20260506102542 67 146 6.1 12.2 0.00 0.00 0.00 74 1012.5
20260506102038 67 243 7.0 14.8 0.00 0.00 0.00 72 1012.3
20260506101546 67 241 8.7 14.8 0.00 0.00 0.00 73 1012.2
20260506101040 67 215 7.0 14.8 0.00 0.00 0.00 73 1012.1
20260506100538 68 240 7.8 16.5 0.00 0.00 0.00 72 1012.1
20260506100048 68 229 7.0 16.5 0.00 0.00 0.00 72 1012.0
20260506095539 68 237 7.0 14.8 0.00 0.00 0.00 72 1012.0
20260506095040 68 209 7.8 14.8 0.00 0.00 0.00 72 1011.8
20260506094553 68 244 5.2 14.8 0.00 0.00 0.00 72 1011.8
20260506094038 68 246 5.2 20.0 0.00 0.00 0.00 72 1011.8
20260506093539 68 244 7.8 20.0 0.00 0.00 0.00 72 1011.6
20260506093048 68 250 7.0 14.8 0.00 0.00 0.00 72 1011.5
20260506092539 68 259 8.7 14.8 0.00 0.00 0.00 72 1011.7
20260506092039 68 196 6.1 14.8 0.00 0.00 0.00 72 1011.6
20260506091549 68 189 2.6 16.5 0.00 0.00 0.00 72 1011.4
20260506091039 68 219 9.6 16.5 0.00 0.00 0.00 71 1011.2
20260506090538 68 253 2.6 10.4 0.00 0.00 0.00 72 1011.0
20260506090044 68 144 5.2 10.4 0.00 0.00 0.00 73 1011.1
20260506085538 68 321 3.5 9.6 0.00 0.00 0.00 72 1011.3
20260506085041 67 249 2.6 7.8 0.00 0.00 0.00 72 1011.4
20260506084555 68 235 1.7 7.8 0.00 0.00 0.00 73 1011.4
20260506084038 68 231 3.5 10.4 0.00 0.00 0.00 73 1011.3
20260506083538 68 258 6.1 10.4 0.00 0.00 0.00 74 1011.3
20260506083100 68 250 3.5 7.8 0.00 0.00 0.00 73 1011.1
20260506082538 68 256 0.9 5.2 0.00 0.00 0.00 73 1011.3
20260506082040 68 0 0.0 6.1 0.00 0.00 0.00 72 1011.3
20260506081554 68 273 0.0 6.1 0.00 0.00 0.00 71 1011.6
20260506081038 68 271 2.6 5.2 0.00 0.00 0.00 73 1011.5
20260506080542 68 274 0.9 9.6 0.00 0.00 0.00 72 1011.4
20260506073102 69 257 7.0 20.0 0.00 0.00 0.00 70 1011.7
20260506072543 69 223 7.8 19.1 0.00 0.00 0.00 70 1011.7
20260506072041 69 189 7.8 16.5 0.00 0.00 0.00 70 1011.7
20260506071551 69 234 6.1 20.0 0.00 0.00 0.00 70 1011.5
20260506071042 69 267 8.7 20.0 0.00 0.00 0.00 70 1011.7